Harbor Springs, MI

5:26 PM EDT on October 20, 2019 (GMT -0400)
Harbor Springs

Weather History for KMGN - September, 2019

Change the Weather History Date:

Saturday, September 21, 2019

  Actual Average (KPLN) Record (KPLN)
Temperature  
Mean Temperature 73 °F -  
Max Temperature 87 °F 62 °F 87 °F (2019)
Min Temperature 59 °F 43 °F 26 °F (1956)
Cooling Degree Days 8    
Growing Degree Days 23 (Base 50)    
Moisture  
Dew Point 64 °F    
Average Humidity 81    
Maximum Humidity 94    
Minimum Humidity 49    
Precipitation  
Precipitation 0.00 in - - ()
Sea Level Pressure  
Sea Level Pressure 30.04 in    
Wind  
Wind Speed 3 mph ()    
Max Wind Speed 13 mph    
Max Gust Speed 29 mph    
Visibility 9.2 miles    
Events Fog , Rain    
Averages and records for this station are not official NWS values.
T = Trace of Precipitation, MM = Missing Value Source: Averaged Metar Reports

Daily Weather History Graph

Daily Weather History Graph

Search for Another Location

Airport or City:

Astronomy

Sep. 21, 2019 Rise Set
Actual Time 7:25 AM EDT 7:39 PM EDT
Civil Twilight 6:55 AM EDT 8:09 PM EDT
Nautical Twilight 6:20 AM EDT 8:43 PM EDT
Astronomical Twilight 5:45 AM EDT 9:19 PM EDT
Moon 11:57 PM EDT (9/21) 2:49 PM EDT (9/21)
Length of Visible Light 13h 13m
Length of Day
12h 14m
Waning Gibbous, 55% of the Moon is Illuminated
Sep 21
Waning Gibbous
Sep 21
Last Quarter
Sep 28
New
Oct 5
First Quarter
Oct 13
Full

Hourly Weather History & Observations

Time (EDT) Temp. Heat Index Dew Point Humidity Pressure Visibility Wind Dir Wind Speed Gust Speed Precip Events Conditions
12:15 AM 62.8 °F - 60.4 °F 92% 30.12 in 10.0 mi ENE 3.5 mph - N/A   Clear
12:20 AM 62.2 °F - 60.1 °F 93% 30.12 in 10.0 mi Calm Calm - N/A   Clear
12:38 AM 62.6 °F - 60.4 °F 93% 30.12 in 10.0 mi Calm Calm - N/A   Clear
12:56 AM 62.4 °F - 60.1 °F 92% 30.12 in 10.0 mi Calm Calm - N/A   Scattered Clouds
1:15 AM 62.1 °F - 59.9 °F 93% 30.12 in 4.0 mi Calm Calm - N/A   Mostly Cloudy
1:16 AM 62.1 °F - 59.9 °F 93% 30.12 in 3.0 mi Calm Calm - N/A   Mostly Cloudy
1:35 AM 61.9 °F - 59.9 °F 93% 30.12 in 0.8 mi Calm Calm - N/A   Overcast
1:36 AM 61.9 °F - 59.9 °F 93% 30.12 in 0.8 mi Calm Calm - N/A   Overcast
1:59 AM 61.9 °F - 59.9 °F 93% 30.12 in 0.2 mi Calm Calm - N/A Fog Fog
2:17 AM 61.3 °F - 59.2 °F 93% 30.12 in 7.0 mi Calm Calm - N/A   Mostly Cloudy
2:35 AM 61.3 °F - 59.2 °F 93% 30.11 in 7.0 mi Calm Calm - N/A   Scattered Clouds
2:36 AM 61.2 °F - 59.2 °F 93% 30.11 in 7.0 mi Calm Calm - N/A   Scattered Clouds
2:55 AM 60.8 °F - 58.5 °F 92% 30.11 in 10.0 mi Calm Calm - N/A   Clear
2:56 AM 60.8 °F - 58.5 °F 92% 30.11 in 10.0 mi Calm Calm - N/A   Clear
3:15 AM 60.1 °F - 58.1 °F 93% 30.11 in 10.0 mi Calm Calm - N/A   Clear
3:20 AM 60.8 °F - 58.6 °F 93% 30.11 in 7.0 mi ENE 3.5 mph - N/A   Clear
3:38 AM 60.1 °F - 58.1 °F 93% 30.11 in 10.0 mi Calm Calm - N/A   Clear
3:56 AM 60.1 °F - 58.1 °F 93% 30.11 in 10.0 mi Calm Calm - N/A   Clear
4:15 AM 59.7 °F - 57.7 °F 93% 30.10 in 10.0 mi Calm Calm - N/A   Clear
4:16 AM 59.7 °F - 57.7 °F 93% 30.10 in 10.0 mi Calm Calm - N/A   Clear
4:35 AM 59.5 °F - 57.4 °F 93% 30.10 in 7.0 mi NE 3.5 mph - N/A   Clear
4:59 AM 60.3 °F - 58.1 °F 93% 30.10 in 10.0 mi NE 3.5 mph - N/A   Clear
5:17 AM 59.9 °F - 57.7 °F 93% 30.10 in 10.0 mi Calm Calm - N/A   Clear
5:35 AM 60.1 °F - 57.9 °F 93% 30.11 in 10.0 mi Calm Calm - N/A   Clear
5:36 AM 60.1 °F - 57.9 °F 93% 30.11 in 10.0 mi Calm Calm - N/A   Clear
5:55 AM 59.4 °F - 57.2 °F 93% 30.11 in 10.0 mi Calm Calm - N/A   Clear
5:56 AM 59.4 °F - 57.4 °F 93% 30.11 in 10.0 mi Calm Calm - N/A   Clear
6:15 AM 59.5 °F - 57.4 °F 93% 30.11 in 10.0 mi NE 3.5 mph - N/A   Clear
6:37 AM 59.5 °F - 57.6 °F 93% 30.11 in 10.0 mi Calm Calm - N/A   Scattered Clouds
6:56 AM 59.9 °F - 58.1 °F 94% 30.11 in 10.0 mi Calm Calm - N/A   Mostly Cloudy
7:15 AM 59.5 °F - 57.4 °F 93% 30.11 in 10.0 mi Calm Calm - N/A   Scattered Clouds
7:16 AM 59.4 °F - 57.4 °F 93% 30.11 in 10.0 mi Calm Calm - N/A   Scattered Clouds
7:35 AM 60.1 °F - 58.1 °F 93% 30.11 in 10.0 mi NE 3.5 mph - N/A   Scattered Clouds
7:59 AM 61.0 °F - 59.0 °F 93% 30.11 in 10.0 mi ENE 3.5 mph - N/A   Clear
8:16 AM 62.4 °F - 60.3 °F 93% 30.11 in 7.0 mi ENE 3.5 mph - N/A   Clear
8:35 AM 63.7 °F - 61.5 °F 93% 30.10 in 7.0 mi East 3.5 mph - N/A   Scattered Clouds
8:36 AM 63.7 °F - 61.7 °F 93% 30.10 in 7.0 mi East 3.5 mph - N/A   Scattered Clouds
8:55 AM 65.3 °F - 63.1 °F 93% 30.10 in 10.0 mi ENE 3.5 mph - N/A   Clear
8:56 AM 65.5 °F - 63.3 °F 93% 30.10 in 10.0 mi ENE 3.5 mph - N/A   Clear
9:15 AM 67.5 °F - 65.3 °F 93% 30.09 in 10.0 mi East 4.6 mph - N/A   Clear
9:38 AM 68.9 °F - 66.7 °F 93% 30.09 in 10.0 mi East 5.8 mph - N/A   Clear
9:56 AM 70.7 °F - 68.2 °F 92% 30.09 in 10.0 mi ENE 4.6 mph - N/A   Clear
10:16 AM 73.0 °F - 68.2 °F 85% 30.08 in 10.0 mi SE 3.5 mph - N/A   Clear
10:35 AM 74.7 °F - 68.2 °F 80% 30.07 in 10.0 mi Calm Calm - N/A   Clear
10:59 AM 77.2 °F - 69.1 °F 76% 30.07 in 10.0 mi Calm Calm - N/A   Scattered Clouds
11:17 AM 78.1 °F - 68.9 °F 73% 30.06 in 10.0 mi ESE 3.5 mph - N/A   Clear
11:35 AM 79.9 °F - 69.6 °F 71% 30.05 in 10.0 mi Calm Calm - N/A   Clear
11:36 AM 79.9 °F - 69.8 °F 71% 30.05 in 10.0 mi Calm Calm - N/A   Clear
11:55 AM 81.5 °F 85.1 °F 70.0 °F 68% 30.04 in 10.0 mi SW 4.6 mph - N/A   Clear
12:15 PM 82.8 °F 86.4 °F 69.6 °F 64% 30.04 in 10.0 mi SW 5.8 mph - N/A   Clear
12:38 PM 84.2 °F 87.9 °F 68.9 °F 60% 30.03 in 10.0 mi SW 4.6 mph - N/A   Clear
12:56 PM 84.6 °F 87.9 °F 68.4 °F 58% 30.02 in 10.0 mi SW 5.8 mph - N/A   Scattered Clouds
1:15 PM 85.1 °F 88.2 °F 67.6 °F 56% 30.01 in 10.0 mi SSW 6.9 mph - N/A   Scattered Clouds
1:35 PM 86.2 °F 88.8 °F 66.9 °F 52% 30.00 in 10.0 mi SSW 5.8 mph - N/A   Clear
1:59 PM 87.3 °F 90.2 °F 66.9 °F 51% 29.99 in 10.0 mi South 6.9 mph - N/A   Scattered Clouds
2:17 PM 87.4 °F 89.8 °F 66.2 °F 49% 29.99 in 10.0 mi SSW 8.1 mph - N/A   Scattered Clouds
2:35 PM 87.6 °F 90.1 °F 66.4 °F 49% 29.98 in 10.0 mi South 9.2 mph 17.3 mph N/A   Scattered Clouds
2:36 PM 87.4 °F 89.8 °F 66.4 °F 49% 29.98 in 10.0 mi SSW 9.2 mph 17.3 mph N/A   Mostly Cloudy
2:55 PM 87.6 °F 90.1 °F 66.0 °F 49% 29.98 in 10.0 mi SSW 10.4 mph - N/A   Mostly Cloudy
3:15 PM 85.1 °F 87.4 °F 66.0 °F 53% 29.97 in 10.0 mi SW 9.2 mph - N/A   Mostly Cloudy
3:38 PM 86.0 °F 88.8 °F 66.9 °F 53% 29.97 in 10.0 mi SW 10.4 mph 19.6 mph N/A   Mostly Cloudy
3:56 PM 84.9 °F 87.1 °F 66.2 °F 53% 29.97 in 10.0 mi SW 11.5 mph 19.6 mph N/A   Mostly Cloudy
4:15 PM 84.0 °F 86.3 °F 66.2 °F 55% 29.96 in 10.0 mi SW 9.2 mph 16.1 mph N/A   Mostly Cloudy
4:35 PM 83.8 °F 86.3 °F 66.4 °F 56% 29.95 in 10.0 mi SW 8.1 mph 19.6 mph N/A   Scattered Clouds
4:59 PM 83.3 °F 85.5 °F 66.2 °F 56% 29.94 in 10.0 mi SW 11.5 mph 18.4 mph N/A   Scattered Clouds
5:17 PM 83.3 °F 85.3 °F 65.8 °F 55% 29.94 in 10.0 mi SW 11.5 mph 20.7 mph N/A   Mostly Cloudy
5:35 PM 81.5 °F 83.7 °F 66.2 °F 60% 29.94 in 10.0 mi SSW 9.2 mph - N/A   Mostly Cloudy
5:36 PM 81.5 °F 83.7 °F 66.2 °F 60% 29.94 in 10.0 mi SSW 11.5 mph 18.4 mph N/A   Overcast
5:55 PM 81.3 °F 83.2 °F 65.5 °F 58% 29.94 in 10.0 mi SW 10.4 mph 18.4 mph N/A   Overcast
6:15 PM 80.1 °F 82.1 °F 66.0 °F 62% 29.94 in 10.0 mi SSW 6.9 mph - N/A   Overcast
6:38 PM 77.5 °F - 68.5 °F 74% 29.94 in 7.0 mi SSW 12.7 mph 28.8 mph N/A Rain Heavy Rain
6:55 PM 73.8 °F - 71.6 °F 93% 29.94 in 10.0 mi SW 5.8 mph - N/A   Overcast
7:15 PM 75.2 °F - 70.7 °F 86% 29.94 in 10.0 mi SW 6.9 mph 17.3 mph N/A   Overcast
7:35 PM 75.7 °F - 69.8 °F 82% 29.93 in 10.0 mi SSW 6.9 mph 16.1 mph N/A   Overcast
7:59 PM 76.1 °F - 69.8 °F 81% 29.94 in 10.0 mi SSW 10.4 mph - N/A   Overcast
8:17 PM 76.1 °F - 69.8 °F 81% 29.94 in 10.0 mi SSW 10.4 mph 17.3 mph N/A   Overcast
8:35 PM 75.7 °F - 69.8 °F 82% 29.94 in 10.0 mi SW 11.5 mph 17.3 mph N/A   Overcast
8:36 PM 75.7 °F - 69.8 °F 82% 29.94 in 10.0 mi SW 11.5 mph 17.3 mph N/A   Overcast
8:55 PM 75.4 °F - 69.8 °F 83% 29.94 in 10.0 mi SW 9.2 mph 19.6 mph N/A   Overcast
9:15 PM 75.4 °F - 69.8 °F 83% 29.94 in 10.0 mi SW 12.7 mph 16.1 mph N/A   Overcast
9:38 PM 75.2 °F - 69.8 °F 83% 29.94 in 10.0 mi SW 8.1 mph - N/A   Overcast
9:56 PM 74.8 °F - 70.2 °F 85% 29.94 in 10.0 mi SSW 8.1 mph - N/A   Overcast
10:15 PM 75.2 °F - 70.0 °F 84% 29.94 in 10.0 mi SSW 11.5 mph 17.3 mph N/A   Overcast
10:16 PM 75.2 °F - 70.0 °F 84% 29.94 in 10.0 mi SSW 11.5 mph 17.3 mph N/A   Overcast
10:59 PM 74.7 °F - 70.7 °F 87% 29.94 in 10.0 mi SSW 12.7 mph 19.6 mph N/A   Overcast
11:17 PM 74.3 °F - 71.6 °F 91% 29.94 in 10.0 mi SW 9.2 mph 17.3 mph N/A   Overcast
11:35 PM 73.9 °F - 71.8 °F 93% 29.93 in 10.0 mi SW 8.1 mph - N/A   Overcast
11:36 PM 73.8 °F - 71.6 °F 93% 29.93 in 10.0 mi SW 9.2 mph - N/A   Overcast
11:55 PM 73.8 °F - 71.6 °F 93% 29.93 in 10.0 mi SW 8.1 mph - N/A   Overcast